Theta_e
321 321 321 321 321 322 321 327 328 329 328 328 328 328 327 325 325 319 312 322 318 327 319 308 311 311 310 305 305 304 294 291 294 293 295 297 298 299 302 307 307 311 312 316 328
320 321 320 320 321 321 322 324 327 328 327 326 326 326 325 324 312 310 322 332 331 329 307 306 304 305 301 302 303 299 294 294 298 297 296 297 298 298 301 304 305 312 317 323 327
318 321 321 320 320 321 321 322 326 327 327 325 325 324 322 318 305 303 326 333 333 324 311 306 306 304 300 302 300 299 294 297 297 298 299 297 296 299 299 299 303 308 314 321 324
317 319 320 320 320 321 321 319 325 326 327 326 325 324 320 312 302 310 326 331 332 310 307 305 303 301 301 298 300 296 297 297 298 298 298 297 297 297 299 301 302 309 318 321 322
316 318 318 318 319 320 320 321 322 326 327 326 325 322 313 302 303 309 323 330 320 309 305 303 302 299 296 297 298 297 297 297 297 297 297 297 296 296 298 299 305 314 319 320 322
316 316 317 317 318 319 319 320 320 324 326 326 324 319 307 300 311 315 320 322 315 310 306 304 301 302 300 299 297 297 296 295 296 296 296 295 296 296 297 306 312 315 317 320 322
316 315 316 317 317 318 319 318 318 324 326 326 323 314 304 309 312 316 319 314 307 306 304 306 306 305 305 303 305 302 294 294 294 295 294 295 294 294 297 305 311 313 314 316 320
314 314 315 316 317 318 318 319 319 323 326 325 322 310 302 311 315 311 308 305 304 305 308 310 307 308 306 305 303 296 292 289 292 293 293 295 291 296 297 301 305 311 312 314 316
313 313 314 315 316 317 318 318 319 323 326 324 312 306 299 314 306 308 307 302 301 300 302 303 302 298 295 292 288 292 287 287 290 292 293 293 293 295 295 299 299 306 310 313 314
312 312 312 314 315 317 318 318 319 323 322 317 310 301 301 298 304 303 303 303 299 297 296 296 293 290 289 290 284 283 286 287 287 290 291 290 292 293 293 294 297 298 306 310 312
310 311 312 312 314 317 316 313 309 309 309 300 299 297 299 301 307 301 301 299 297 294 288 290 287 284 286 288 288 287 288 286 288 290 289 289 289 292 292 291 292 293 295 303 309
310 310 312 312 313 317 315 305 309 309 300 301 302 298 300 303 297 299 302 295 292 287 288 286 284 288 290 288 287 285 285 285 287 289 289 287 289 292 291 292 293 293 293 294 298
309 309 309 310 311 313 310 306 315 312 297 296 301 297 297 301 297 296 299 294 291 287 286 285 288 290 289 285 285 283 283 283 285 286 286 285 285 288 291 291 292 292 294 295 296
308 309 309 310 305 310 306 311 315 312 291 289 294 298 298 299 294 300 298 295 289 287 287 286 288 288 286 284 285 282 286 285 285 284 281 284 279 284 287 289 290 293 293 294 295
307 307 308 310 305 306 310 314 314 305 280 291 293 303 299 298 296 296 298 294 287 287 288 285 286 286 285 286 287 285 286 285 284 282 279 279 279 281 283 285 288 291 293 296 297
306 307 307 306 306 308 314 313 307 286 279 286 294 292 292 293 293 295 295 295 292 289 287 286 289 289 289 286 288 286 284 283 280 280 276 280 280 279 282 286 289 291 292 294 293
306 305 304 307 300 314 313 304 287 282 286 284 287 291 292 288 290 293 290 287 285 281 280 283 283 285 287 284 285 284 282 277 276 275 276 278 277 283 286 286 288 289 290 290 290
304 304 304 305 308 313 306 294 282 283 284 289 290 291 287 290 288 291 289 286 287 285 281 282 279 284 287 285 283 283 284 278 272 272 275 278 277 283 287 287 289 288 288 289 290
304 301 300 303 308 309 298 284 285 286 288 287 290 287 285 288 288 289 288 287 287 286 283 282 280 286 287 287 289 283 281 285 277 267 273 277 280 284 287 286 286 287 288 288 289
298 296 297 306 309 305 292 287 286 290 289 290 285 289 284 285 285 286 286 290 288 287 288 285 281 285 287 288 287 286 288 282 279 272 270 275 277 280 284 286 286 286 287 288 289
295 290 300 308 308 296 284 288 286 291 293 289 286 284 287 285 287 285 286 287 288 286 287 286 284 282 286 284 283 283 281 282 282 280 274 271 277 282 284 286 286 286 288 288 289
292 285 305 308 292 289 286 288 292 290 293 289 289 287 287 288 285 286 284 288 291 289 285 286 284 280 282 285 286 285 285 284 280 276 276 276 278 284 284 285 286 286 287 288 289
284 286 306 304 285 284 290 289 291 290 290 288 287 288 290 288 283 285 286 291 291 290 288 288 282 277 280 284 284 282 282 284 282 281 277 276 279 284 284 286 288 289 287 288 289
285 283 290 298 293 289 288 287 287 292 288 289 287 290 289 287 288 285 286 290 291 291 295 293 285 282 278 281 284 282 283 284 284 280 279 281 280 282 285 285 287 288 289 288 290
284 282 286 286 287 291 291 288 286 286 289 290 287 289 288 283 284 283 287 287 290 294 291 290 282 282 281 283 286 284 284 284 285 286 282 284 282 285 288 286 287 287 289 289 289
283 283 287 289 289 291 291 288 286 287 288 286 286 289 289 285 286 282 285 284 287 287 287 287 277 281 277 281 283 281 284 285 286 286 286 285 282 284 287 285 286 289 289 289 290
288 288 290 290 288 288 288 288 288 289 288 291 289 288 287 287 290 291 292 291 290 289 288 285 279 277 272 280 281 277 283 283 285 286 286 283 286 287 286 286 288 289 288 288 289
Wind_Speed
23 23 22 21 18 20 16 27 19 19 19 15 13 8 7 9 9 3 7 7 7 9 5 6 4 1 3 4 3 3 5 3 5 7 5 3 5 1 2 5 1 4 4 2 14
22 24 23 22 21 18 21 25 21 20 21 18 11 8 4 9 3 6 6 11 9 10 5 8 5 4 4 3 1 3 4 8 4 3 2 3 4 8 5 3 2 2 3 8 16
17 22 24 22 22 18 21 22 23 21 23 25 20 15 6 3 2 9 15 12 13 10 7 4 6 4 4 2 3 2 5 5 1 3 1 2 2 4 7 3 8 10 9 13 15
18 21 24 21 25 22 24 14 25 23 23 25 24 20 16 3 10 3 19 18 13 9 6 8 4 6 5 4 1 3 3 4 3 2 1 2 4 5 6 6 1 7 11 16 18
16 20 22 23 24 24 18 18 24 25 25 26 24 22 9 1 8 6 10 14 11 9 9 8 6 6 8 5 4 3 1 4 3 2 3 4 5 4 7 0 2 8 12 17 16
17 16 19 20 24 24 20 23 23 26 27 26 27 21 9 9 7 4 12 12 8 7 7 8 7 6 6 2 3 3 2 4 1 2 2 3 2 1 4 6 6 9 11 13 17
18 16 19 21 24 25 22 20 21 27 28 29 30 10 4 11 5 4 11 8 7 6 8 3 7 8 6 5 4 1 3 5 3 4 2 2 2 8 2 2 7 7 7 9 14
14 14 14 17 22 24 25 22 18 27 28 30 29 7 6 4 5 3 7 6 6 7 7 6 5 8 7 4 4 3 4 2 3 4 2 5 7 4 5 5 7 7 5 7 11
13 10 10 11 21 26 25 19 17 28 30 29 16 7 5 9 7 5 3 12 7 5 5 5 4 4 4 6 5 3 2 5 5 5 4 5 7 6 5 7 7 6 6 8 7
11 10 11 11 11 27 22 20 17 27 25 13 7 6 2 8 7 8 2 10 7 9 7 6 5 4 3 4 7 7 6 4 5 3 1 2 9 2 1 5 7 7 8 8 8
10 14 13 14 14 24 18 9 12 17 23 7 23 6 15 6 7 3 6 9 5 9 7 3 5 8 10 8 6 7 6 5 3 3 4 7 8 8 6 4 6 8 8 9 14
13 13 16 13 14 23 18 13 26 7 16 0 23 4 7 9 9 5 9 10 7 8 7 6 6 8 7 6 6 4 5 5 1 1 4 2 10 11 6 7 9 10 9 13 7
13 13 11 11 14 13 18 25 8 17 8 5 14 5 6 11 18 18 15 7 13 8 6 9 9 9 8 5 7 2 6 5 4 1 1 2 7 8 7 5 5 7 8 6 15
15 13 13 13 8 13 17 18 15 14 6 10 10 6 5 7 6 4 7 10 5 12 8 7 3 12 7 6 6 6 6 4 5 4 4 0 7 6 6 8 5 12 9 16 15
16 13 14 17 9 17 14 14 18 3 14 16 7 9 8 12 19 7 4 6 12 10 9 8 10 11 6 9 8 8 7 5 3 3 2 3 1 9 3 6 9 13 15 18 16
15 13 14 7 9 13 17 18 12 7 9 9 11 11 16 4 4 10 6 7 6 7 6 5 2 8 10 4 6 10 8 7 5 3 3 6 6 6 6 10 9 12 13 14 8
11 12 12 7 7 13 20 13 13 12 8 9 14 22 24 8 7 28 20 13 11 11 7 3 3 3 5 9 5 3 8 2 2 1 6 2 3 6 9 10 8 5 7 7 5
10 16 11 10 8 16 16 15 15 9 7 6 17 23 18 17 4 20 22 14 6 8 8 13 8 10 6 9 11 8 9 7 8 5 3 1 9 8 12 7 9 9 7 5 6
13 6 8 11 13 11 21 18 11 14 9 17 25 27 14 6 11 14 19 24 7 9 10 11 5 1 3 6 13 7 7 7 8 3 4 5 8 11 12 11 8 10 7 8 8
2 5 8 12 12 11 18 19 7 13 14 26 18 21 27 27 14 18 22 18 14 7 3 7 7 2 3 5 2 9 12 4 2 4 4 4 5 7 8 5 5 8 9 8 7
3 6 7 19 14 12 16 11 9 13 22 22 14 8 18 28 18 20 20 2 8 6 4 6 7 2 4 6 9 5 5 2 6 5 6 1 7 9 8 7 6 7 7 7 7
4 7 10 17 11 11 15 7 11 24 12 4 7 7 15 27 10 17 11 11 13 10 9 2 7 5 6 2 2 1 8 7 6 5 2 3 9 5 8 5 3 5 5 4 4
3 5 7 19 13 16 14 3 14 27 20 9 8 5 17 18 7 6 8 6 10 17 13 8 1 5 4 2 2 4 2 7 5 3 8 6 7 2 6 6 5 3 2 2 1
1 4 5 12 7 26 22 12 18 16 5 6 9 16 19 14 3 8 14 7 12 6 7 9 5 9 9 2 10 7 6 6 7 3 4 17 2 4 4 3 3 2 4 4 5
4 5 7 12 13 24 26 22 26 17 7 9 6 23 23 10 4 9 11 6 6 14 7 6 8 4 4 4 7 7 11 12 19 26 13 13 13 11 11 3 3 2 4 3 4
4 4 4 11 18 26 23 26 33 17 20 19 19 27 22 18 13 11 10 5 14 4 7 3 1 4 3 3 5 5 9 21 25 17 27 12 8 3 9 4 4 6 6 6 7
3 5 4 14 26 19 16 24 32 21 8 17 22 20 14 9 7 8 6 6 15 17 14 8 7 4 4 2 6 5 15 14 14 15 12 22 8 6 6 9 10 10 9 10 9
Wind_Direction
249 245 236 240 236 246 276 245 216 204 196 189 171 222 184 149 131 142 208 197 171 155 121 122 63 55 67 80 88 140 76 205 212 159 232 154 177 15 113 117 187 142 144 307 140
253 243 235 231 229 248 247 267 215 195 188 188 186 173 150 153 121 217 219 182 167 149 135 136 131 128 76 101 51 107 138 209 205 225 188 206 179 163 147 126 232 149 71 133 148
273 244 238 222 225 230 249 279 216 194 186 181 189 153 150 293 109 236 176 196 170 154 159 122 130 104 95 120 159 158 175 181 172 232 235 190 236 176 132 220 212 192 157 163 165
279 252 236 225 222 222 236 277 221 198 187 183 183 155 141 58 191 193 184 175 162 154 122 116 98 101 115 155 124 151 222 174 150 114 111 189 137 201 200 207 180 203 151 164 178
269 254 236 229 226 227 235 243 259 202 184 168 164 143 112 135 265 267 162 162 143 142 152 127 123 126 142 159 129 156 216 171 143 138 182 121 236 237 225 112 62 136 149 174 184
260 249 227 225 232 224 223 239 276 204 184 155 151 139 116 203 177 202 133 141 156 129 148 136 167 124 108 143 133 132 344 290 141 123 110 148 244 221 241 141 131 153 168 177 186
255 236 233 221 230 227 232 251 268 204 184 163 153 161 158 210 317 138 128 143 139 135 133 137 154 107 134 121 151 156 115 328 246 168 132 148 239 232 350 146 156 180 177 176 190
250 237 245 234 222 222 223 237 249 201 177 162 153 155 173 257 162 75 119 74 95 105 127 147 103 101 117 120 55 51 67 89 274 189 178 141 267 248 164 169 203 193 188 192 203
243 257 265 268 220 221 216 232 235 197 169 158 159 167 196 166 164 184 135 132 113 92 80 106 85 113 112 117 62 32 167 198 305 213 155 168 238 199 167 173 222 222 206 216 219
244 255 260 267 261 218 213 229 242 185 161 142 154 110 221 196 140 127 86 117 123 110 75 74 71 107 72 127 187 178 173 196 196 232 200 195 264 268 168 184 218 215 222 220 227
254 257 249 268 260 215 205 211 188 186 158 172 166 169 122 142 103 96 147 88 75 69 130 158 126 175 181 171 170 141 148 165 205 209 176 208 253 246 219 239 221 234 232 232 225
251 244 258 269 278 242 196 212 196 135 148 199 159 51 126 145 114 156 156 121 135 142 121 77 192 199 158 160 137 149 157 195 296 323 195 198 258 259 189 225 209 219 212 227 239
255 263 283 296 284 260 192 204 216 160 123 189 179 144 168 170 160 172 162 124 147 133 167 150 198 139 137 141 137 154 165 173 177 108 275 354 277 258 248 228 244 246 235 228 223
256 255 257 262 288 219 197 189 174 191 153 150 181 223 159 135 100 142 164 127 152 171 128 167 134 149 143 167 131 162 210 150 144 109 228 324 273 278 246 244 212 238 224 238 231
256 266 264 234 303 201 186 167 164 270 185 146 153 165 142 166 137 218 188 65 152 153 145 186 152 150 157 180 156 211 129 126 100 114 9 326 310 266 353 248 249 232 236 236 231
253 264 282 252 232 250 153 163 134 182 164 147 155 171 152 144 155 136 144 65 139 103 63 154 112 153 167 93 143 152 83 51 54 87 285 221 185 254 191 202 234 237 228 235 231
255 269 267 251 253 193 152 168 175 198 147 148 154 163 166 138 126 162 168 156 154 131 159 97 155 135 128 89 44 96 98 29 327 300 222 36 275 272 257 244 231 252 241 243 243
274 274 257 231 239 199 170 164 196 121 166 142 160 152 152 138 118 176 161 171 227 115 134 164 201 167 180 157 160 189 160 157 190 200 239 67 243 248 234 287 254 235 246 274 259
292 263 229 231 219 212 161 197 172 148 146 142 161 153 131 183 131 163 187 191 168 175 151 159 185 60 121 142 149 189 199 152 106 36 61 219 289 292 265 267 272 274 273 268 268
292 267 241 195 181 212 180 182 132 138 129 153 153 169 162 181 145 172 185 205 187 172 166 180 109 342 140 107 51 174 152 151 356 152 250 264 266 240 276 299 326 253 233 244 247
236 242 229 165 160 194 184 194 128 145 147 160 157 156 169 169 176 176 181 50 147 122 60 131 101 209 139 211 162 133 179 93 130 168 173 208 259 215 253 253 287 303 245 234 219
281 245 172 152 169 183 186 182 113 150 151 136 98 55 161 168 151 174 175 197 158 141 138 154 108 136 188 210 187 134 169 155 161 236 292 129 267 207 229 244 241 293 325 280 216
216 264 202 161 177 183 168 223 139 155 162 159 128 152 149 164 130 131 138 157 149 165 164 178 84 100 58 318 41 199 161 158 111 84 201 152 253 207 251 253 241 238 157 179 250
288 260 253 181 156 172 171 186 149 167 95 100 110 125 139 165 66 146 148 177 164 157 159 111 146 157 183 171 134 171 161 158 138 223 163 235 289 292 221 169 301 291 94 135 169
220 235 263 170 172 178 169 172 150 164 157 132 112 158 156 145 122 155 153 124 160 155 145 141 181 143 56 141 148 155 171 175 198 221 199 234 210 237 276 274 205 160 127 149 194
214 217 241 148 159 168 174 178 168 162 158 183 161 168 168 158 182 155 122 133 167 88 130 18 239 119 32 55 125 137 187 196 212 215 236 234 252 231 249 263 246 221 204 228 231
174 249 268 165 167 163 183 172 173 157 1 165 143 153 167 159 92 127 124 99 149 171 168 132 125 92 216 18 98 329 214 207 223 220 223 238 209 203 226 239 262 260 228 240 236